Pagrindinis puslapis
METAR-TAF:

METAR-TAF

Oro uostai :

Avenger Field

Sweetwater, Teksasas, Jungtinės Amerikos Valstijos

platuma: 32-28-02N, ilguma: 100-27-59W, Aukštis: 725 m

Dabartinis oras

Ataskaita buvo paskelbta 32 minutes, ne 04:15 UTC
Vėjas 8 kt iš Rytų/Pietryčių
Temperatūra 15°C
Drėgmė 77%
Slėgis 1024 hPa
Matomumas: 16.1 km
Giedras dangus

METAR: KSWW 140415Z AUTO 11008KT 10SM CLR 15/11 A3025 RMK AO2 T01460106

Laikas: 23:47 (04:47 UTC)


TAF: trūkstamas

Orai ataskaitas ir orų prognozės (METAR, TAF).

turimą stotys yra geltonos ir raudonos taškus žemėlapyje.

Perkelti pele per norėdami pamatyti stoties vardą.

Tada spustelėkite, norėdami matyti oro stebėjimo ir prognozės.

Norėdami pakeisti žemėlapį: spustelėkite ant žalios mygtukų su juodo kryžiaus žemyn,; žalią mygtuką su brūkšneliu, jei norite nutolinti; arba žalių rodyklių gretimoms žemėlapius.


METAR-TAF: